GOES 19

Last updated on Sun Jun 21 2026 00:02:47 GMT+0000 (Coordinated Universal Time)

1 60133U 24119A 26171.37127980 -.00000253 00000+0 00000+0 0 9993 2 60133 0.0015 112.2371 0000407 49.5773 165.2311 1.00270517 6990
UTC large
Height (km)
Speed (km/s)
/
Latitude / Longitude
Inclination (degrees)
Orbital Period (minutes)
Azimuth
Elevation
Range (km)
Doppler Factor

Next 0 passes for location: London (51.5072 / 0.1276)

No passes found over London.
GOES 19